This is the latest recevied weather packets stored in our database for station/object K4CRS-13. If no packets are shown the sender has not sent any weather packets the latest 1 day(s).
| Time | Temp. | Humidity | Pressure | Rain* | Wind** | Luminosity | Snow |
|---|---|---|---|---|---|---|---|
| 1778035606 | 20.56° C | 79% | 1045.2 hPa | 0 mm | 0.89 m/s, 185° | 0 W/m² | - |
| 1778035302 | 20.56° C | 79% | 1045.2 hPa | 0 mm | 1.34 m/s, 183° | 0 W/m² | - |
| 1778034998 | 20.56° C | 79% | 1045.6 hPa | 0 mm | 0.89 m/s, 179° | 0 W/m² | - |
| 1778034695 | 20.56° C | 79% | 1045.3 hPa | 0 mm | 0.45 m/s, 179° | 0 W/m² | - |
| 1778034393 | 20.56° C | 79% | 1045.3 hPa | 0 mm | 0.45 m/s, 170° | 0 W/m² | - |
| 1778034090 | 20.56° C | 79% | 1045.1 hPa | 0 mm | 0.89 m/s, 164° | 0 W/m² | - |
| 1778033788 | 20.56° C | 79% | 1044.9 hPa | 0 mm | 0.89 m/s, 186° | 0 W/m² | - |
| 1778033485 | 20° C | 79% | 1045 hPa | 0 mm | 0.45 m/s, 170° | 0 W/m² | - |
| 1778033182 | 20° C | 79% | 1044.8 hPa | 0 mm | 1.79 m/s, 185° | 0 W/m² | - |
| 1778032879 | 20° C | 79% | 1045.1 hPa | 0 mm | 0.89 m/s, 174° | 0 W/m² | - |
| 1778032577 | 20° C | 79% | 1045.1 hPa | 0 mm | 0.89 m/s, 170° | 0 W/m² | - |
| 1778032273 | 20° C | 79% | 1044.9 hPa | 0 mm | 1.34 m/s, 169° | 0 W/m² | - |
| 1778031971 | 20° C | 79% | 1045 hPa | 0 mm | 1.34 m/s, 175° | 0 W/m² | - |
| 1778031666 | 20° C | 79% | 1044.8 hPa | 0 mm | 0.89 m/s, 188° | 0 W/m² | - |
| 1778031365 | 20° C | 79% | 1045 hPa | 0 mm | 0.89 m/s, 174° | 0 W/m² | - |
| 1778031062 | 20° C | 79% | 1044.7 hPa | 0 mm | 0.89 m/s, 183° | 0 W/m² | - |
| 1778030758 | 20° C | 80% | 1044.8 hPa | 0 mm | 0.89 m/s, 174° | 0 W/m² | - |
| 1778030454 | 20° C | 80% | 1044.8 hPa | 0 mm | 1.34 m/s, 184° | 0 W/m² | - |
| 1778030152 | 20° C | 80% | 1044.9 hPa | 0 mm | 0.89 m/s, 181° | 0 W/m² | - |
| 1778029848 | 20° C | 80% | 1044.8 hPa | 0 mm | 1.34 m/s, 188° | 0 W/m² | - |
| 1778029548 | 20° C | 79% | 1044.7 hPa | 0 mm | 1.34 m/s, 175° | 0 W/m² | - |
| 1778029244 | 20° C | 79% | 1044.7 hPa | 0 mm | 0.89 m/s, 181° | 0 W/m² | - |
| 1778028941 | 20° C | 79% | 1045 hPa | 0 mm | 0.89 m/s, 187° | 0 W/m² | - |
| 1778028637 | 20.56° C | 78% | 1045.1 hPa | 0 mm | 1.34 m/s, 184° | 0 W/m² | - |
| 1778028335 | 20.56° C | 78% | 1045.1 hPa | 0 mm | 1.34 m/s, 184° | 1 W/m² | - |
* Rain latest hour (hover to see other rain measurements)
** Current wind speed in m/s (hover to see current wind gust speed)